Location: Newark
(50.2553°N, 2.4750°E)
Time: 18:36:20
(UTC+00:00)

ISS - Visible Passes

Search period start: 21 November 2019 00:00
Search period end: 01 December 2019 00:00
Orbit: 412 x 421 km, 51.6° (Epoch: 22 November)

Date Brightness Start Highest point End Pass type
(mag) Time Alt. Az. Time Alt. Az. Time Alt. Az.
22 Nov -1.2 17:29:43 10° SE 17:29:53 10° SE 17:29:53 10° SE visible
23 Nov -2.0 18:14:45 10° SSW 18:16:34 24° S 18:16:34 24° S visible
24 Nov -2.2 17:26:51 10° SSW 17:29:30 22° SE 17:30:15 20° ESE visible
24 Nov -0.7 19:02:32 10° WSW 19:03:10 15° WSW 19:03:10 15° WSW visible
25 Nov -1.5 16:39:19 10° S 16:41:16 15° SE 16:43:14 10° ESE visible
25 Nov -2.9 18:14:11 10° WSW 18:16:46 46° SSW 18:16:46 46° SSW visible
26 Nov -3.1 17:25:55 10° SW 17:29:07 42° SSE 17:30:19 29° ESE visible
26 Nov -0.7 19:02:25 10° W 19:03:13 16° W 19:03:13 16° W visible
27 Nov -2.5 16:37:48 10° SSW 16:40:46 30° SSE 16:43:45 10° E visible
27 Nov -3.2 18:13:56 10° WSW 18:16:43 58° W 18:16:43 58° W visible
28 Nov -3.8 17:25:29 10° WSW 17:28:50 77° SSE 17:30:11 33° E visible
28 Nov -0.7 19:02:19 10° W 19:03:04 16° W 19:03:04 16° W visible
29 Nov -3.4 16:37:06 10° SW 16:40:24 57° SSE 16:43:37 11° ENE visible
29 Nov -3.0 18:13:47 10° W 18:16:30 52° WNW 18:16:30 52° WNW visible
30 Nov -3.8 17:25:16 10° W 17:28:37 75° N 17:29:56 34° ENE visible
30 Nov -0.6 19:02:08 10° WNW 19:02:49 15° WNW 19:02:49 15° WNW visible
